Retour au catalogue

COSMOS 2251 DEB

ActifLEO
NORAD 36073·DEBRIS·🇷🇺 Russia

Lancé Jun 16, 1993 depuis Plesetsk Cosmodrome

Loading…

Prochains Passages (prochaines 24 heures)

TLE

FraisSource: Space-Track

Époque: Sep 13, 2026, 12:26 UTC

1 36073U 93036AYL 26256.51838954  .00000282  00000-0  10748-3 0  9999
2 36073  74.0331 178.7177 0024963 186.1218 173.9634 14.35236062741498

Suivez COSMOS 2251 DEB en temps réel avec AllMySat

Download on the App Store